| time (UTC) | temp F | wind direction | speed knots | gust knots | rain 1hr in | rain 24hr in | rain mn in | humidity % | barometer mb |
| 20260507180311 | 49 | 0 | 0.0 | 0.0 | 0.00 | 0.04 | 0.01 | 78 | 1013.1 |
| 20260507173311 | 51 | 202 | 0.0 | 0.9 | 0.00 | 0.04 | 0.01 | 74 | 1012.5 |
| 20260507170311 | 52 | 202 | 0.9 | 5.2 | 0.00 | 0.05 | 0.01 | 75 | 1012.4 |
| 20260507163310 | 54 | 180 | 1.7 | 3.5 | 0.00 | 0.05 | 0.01 | 67 | 1012.4 |
| 20260507160310 | 55 | 315 | 0.9 | 3.5 | 0.00 | 0.06 | 0.01 | 65 | 1012.0 |
| 20260507153310 | 56 | 67 | 2.6 | 7.0 | 0.00 | 0.06 | 0.01 | 64 | 1012.1 |
| 20260507150310 | 59 | 180 | 2.6 | 4.3 | 0.00 | 0.06 | 0.01 | 57 | 1011.8 |
| 20260507143310 | 60 | 157 | 2.6 | 5.2 | 0.00 | 0.06 | 0.01 | 56 | 1011.8 |
| 20260507140310 | 60 | 157 | 3.5 | 7.8 | 0.00 | 0.07 | 0.01 | 58 | 1011.7 |
| 20260507133310 | 59 | 180 | 1.7 | 5.2 | 0.00 | 0.07 | 0.01 | 60 | 1011.6 |
| 20260507130310 | 60 | 157 | 1.7 | 6.1 | 0.00 | 0.08 | 0.01 | 55 | 1011.8 |
| 20260507123309 | 60 | 180 | 1.7 | 5.2 | 0.00 | 0.08 | 0.01 | 61 | 1012.0 |
| 20260507120309 | 60 | 180 | 1.7 | 4.3 | 0.00 | 0.09 | 0.01 | 61 | 1012.2 |
| 20260507113309 | 59 | 157 | 0.0 | 1.7 | 0.00 | 0.09 | 0.01 | 57 | 1012.6 |
| 20260507103309 | 60 | 180 | 2.6 | 5.2 | 0.00 | 0.09 | 0.01 | 69 | 1012.9 |
| 20260507093309 | 58 | 157 | 4.3 | 7.0 | 0.00 | 0.09 | 0.01 | 71 | 1013.0 |
| 20260507083308 | 57 | 180 | 0.0 | 4.3 | 0.00 | 0.09 | 0.01 | 77 | 1012.5 |
| 20260507080308 | 55 | 0 | 0.0 | 0.0 | 0.00 | 0.09 | 0.01 | 80 | 1012.3 |
| 20260507073308 | 54 | 0 | 0.0 | 0.0 | 0.00 | 0.09 | 0.01 | 84 | 1012.3 |
| 20260507070308 | 53 | 0 | 0.0 | 0.0 | 0.00 | 0.09 | 0.01 | 84 | 1012.1 |
| 20260507063313 | 52 | 0 | 0.0 | 0.0 | 0.00 | 0.09 | 0.01 | 81 | 1012.1 |
| 20260507060313 | 49 | 0 | 0.0 | 0.0 | 0.00 | 0.09 | 0.01 | 89 | 1011.5 |
| 20260507053313 | 44 | 0 | 0.0 | 0.0 | 0.00 | 0.09 | 0.01 | 94 | 1010.7 |
| 20260507050313 | 43 | 0 | 0.0 | 0.0 | 0.00 | 0.09 | 0.01 | 93 | 1010.2 |
| 20260507043313 | 43 | 0 | 0.0 | 0.0 | 0.00 | 0.09 | 0.01 | 94 | 1010.5 |
| 20260507040313 | 43 | 0 | 0.0 | 0.0 | 0.00 | 0.09 | 0.01 | 94 | 1010.3 |
| 20260507033312 | 44 | 0 | 0.0 | 0.0 | 0.00 | 0.09 | 0.01 | 94 | 1010.2 |
| 20260507030312 | 44 | 0 | 0.0 | 0.0 | 0.00 | 0.09 | 0.01 | 94 | 1010.1 |
| 20260507023312 | 44 | 292 | 0.0 | 1.7 | 0.00 | 0.09 | 0.01 | 94 | 1010.1 |
| 20260507013313 | 45 | 0 | 0.0 | 0.0 | 0.00 | 0.09 | 0.01 | 95 | 1010.2 |
| 20260507010312 | 45 | 0 | 0.0 | 0.0 | 0.00 | 0.09 | 0.01 | 95 | 1010.2 |
| 20260507003312 | 45 | 0 | 0.0 | 0.0 | 0.00 | 0.09 | 0.01 | 95 | 1010.2 |
| 20260507000314 | 45 | 292 | 0.9 | 3.5 | 0.00 | 0.09 | 0.01 | 95 | 1010.6 |
| 20260506233312 | 45 | 292 | 1.7 | 3.5 | 0.00 | 0.09 | 0.01 | 96 | 1010.7 |
| 20260506220312 | 46 | 292 | 1.7 | 1.7 | 0.00 | 0.09 | 0.09 | 95 | 1010.3 |
| 20260506203311 | 47 | 315 | 0.9 | 2.6 | 0.01 | 0.09 | 0.09 | 95 | 1009.7 |
| 20260506200311 | 48 | 292 | 1.7 | 3.5 | 0.01 | 0.09 | 0.09 | 95 | 1009.8 |
| 20260506193311 | 49 | 0 | 0.0 | 0.0 | 0.02 | 0.08 | 0.08 | 96 | 1009.9 |
| 20260506190311 | 49 | 0 | 0.0 | 0.0 | 0.02 | 0.08 | 0.08 | 95 | 1009.2 |
| 20260506183311 | 50 | 0 | 0.0 | 0.0 | 0.02 | 0.06 | 0.06 | 95 | 1008.4 |